Weather History for Cody, WY

Change the Weather History Date:

Saturday, January 26, 2013

  Actual Average Record
Temperature  
Mean Temperature 36 °F -  
Max Temperature 44 °F 35 °F 63 °F (1935)
Min Temperature 28 °F 13 °F -25 °F (1972)
Degree Days  
Heating Degree Days 29    
Moisture  
Dew Point 24 °F    
Average Humidity 59    
Maximum Humidity 80    
Minimum Humidity 39    
Precipitation  
Precipitation 0.00 in - - ()
Sea Level Pressure  
Sea Level Pressure 29.82 in    
Wind  
Wind Speed 8 mph (SSE)    
Max Wind Speed 15 mph    
Max Gust Speed 23 mph    
Visibility 10 miles    
Events      
Averages and records for this station are not official NWS values.
T = Trace of Precipitation, MM = Missing Value Source: NWS Daily Summary

Daily Weather History Graph

Daily Weather History Graph

Search for Another Location

Airport:

Trip Planner

Search our weather history database for the weather conditions in past years. The results will help you decide how hot, cold, wet, or windy it might be!

Date:

Astronomy

Jan. 26, 2013 Rise Set
Actual Time 7:40 AM MST 5:17 PM MST
Civil Twilight 7:09 AM MST 5:48 PM MST
Nautical Twilight 6:33 AM MST 6:24 PM MST
Astronomical Twilight 5:59 AM MST 6:58 PM MST
Moon 5:17 PM MST (1/26) 6:59 AM MST (1/26)
Length of Visible Light 10h 39m
Length of Day
9h 36m
Full, 100% of the Moon is Illuminated
Jan 26
Full
Jan 26
Full
Feb 3
Last Quarter
Feb 10
New
Feb 17
First Quarter

Hourly Weather History & Observations

Time (MST) Temp. Windchill Dew Point Humidity Pressure Visibility Wind Dir Wind Speed Gust Speed Precip Events Conditions
12:15 AM 42.8 °F 35.4 °F 24.8 °F 49% 29.93 in 10.0 mi SW 15.0 mph - N/A   Clear
12:35 AM 44.6 °F 38.4 °F 23.0 °F 43% 29.92 in 10.0 mi WSW 12.7 mph 23.0 mph N/A   Clear
12:55 AM 44.6 °F 38.1 °F 23.0 °F 43% 29.92 in 10.0 mi SW 13.8 mph 20.7 mph N/A   Clear
1:15 AM 44.6 °F 39.2 °F 23.0 °F 43% 29.93 in 10.0 mi SW 10.4 mph 17.3 mph N/A   Clear
1:35 AM 44.6 °F 38.4 °F 23.0 °F 43% 29.92 in 10.0 mi SW 12.7 mph 16.1 mph N/A   Clear
1:55 AM 44.6 °F 38.8 °F 21.2 °F 39% 29.92 in 10.0 mi SW 11.5 mph 18.4 mph N/A   Clear
2:15 AM 42.8 °F 37.0 °F 24.8 °F 49% 29.91 in 10.0 mi SW 10.4 mph 17.3 mph N/A   Clear
2:35 AM 42.8 °F 37.0 °F 23.0 °F 46% 29.91 in 10.0 mi SW 10.4 mph - N/A   Clear
2:55 AM 42.8 °F 36.2 °F 24.8 °F 49% 29.90 in 10.0 mi SW 12.7 mph - N/A   Clear
3:15 AM 44.6 °F 41.4 °F 24.8 °F 46% 29.90 in 10.0 mi WSW 5.8 mph - N/A   Clear
3:55 AM 35.6 °F 27.1 °F 21.2 °F 56% 29.90 in 10.0 mi SE 12.7 mph - N/A   Clear
4:15 AM 35.6 °F 26.6 °F 19.4 °F 52% 29.89 in 10.0 mi South 13.8 mph - N/A   Clear
4:35 AM 35.6 °F 27.5 °F 19.4 °F 52% 29.89 in 10.0 mi SE 11.5 mph - N/A   Clear
4:55 AM 37.4 °F 29.8 °F 21.2 °F 52% 29.89 in 10.0 mi SSW 11.5 mph 16.1 mph N/A   Clear
5:15 AM 35.6 °F 26.6 °F 19.4 °F 52% 29.88 in 10.0 mi SSE 13.8 mph - N/A   Clear
5:35 AM 35.6 °F 26.6 °F 19.4 °F 52% 29.88 in 10.0 mi SSE 13.8 mph - N/A   Clear
5:55 AM 35.6 °F 28.0 °F 21.2 °F 56% 29.89 in 10.0 mi SE 10.4 mph - N/A   Clear
6:35 AM 35.6 °F - 21.2 °F 56% 29.89 in 10.0 mi Calm Calm - N/A   Mostly Cloudy
6:55 AM 35.6 °F 28.0 °F 21.2 °F 56% 29.89 in 10.0 mi SSE 10.4 mph - N/A   Overcast
7:15 AM 33.8 °F - 21.2 °F 60% 29.89 in 10.0 mi Calm Calm - N/A   Mostly Cloudy
7:35 AM 32.0 °F - 21.2 °F 64% 29.88 in 10.0 mi Calm Calm - N/A   Clear
7:55 AM 32.0 °F 28.7 °F 21.2 °F 64% 29.88 in 10.0 mi SSW 3.5 mph - N/A   Clear
8:15 AM 30.2 °F 24.3 °F 21.2 °F 69% 29.88 in 10.0 mi South 5.8 mph - N/A   Partly Cloudy
8:35 AM 33.8 °F 28.6 °F 23.0 °F 65% 29.88 in 10.0 mi South 5.8 mph - N/A   Mostly Cloudy
8:55 AM 33.8 °F 30.8 °F 23.0 °F 65% 29.88 in 10.0 mi South 3.5 mph - N/A   Mostly Cloudy
9:15 AM 35.6 °F - 23.0 °F 60% 29.88 in 10.0 mi Calm Calm - N/A   Mostly Cloudy
9:35 AM 35.6 °F - 24.8 °F 65% 29.88 in 10.0 mi Calm Calm - N/A   Mostly Cloudy
9:55 AM 35.6 °F - 24.8 °F 65% 29.88 in 10.0 mi Calm Calm - N/A   Overcast
10:15 AM 37.4 °F - 24.8 °F 60% 29.88 in 10.0 mi Calm Calm - N/A   Mostly Cloudy
10:35 AM 37.4 °F - 24.8 °F 60% 29.87 in 10.0 mi Calm Calm - N/A   Mostly Cloudy
11:15 AM 41.0 °F - 24.8 °F 53% 29.86 in 10.0 mi Calm Calm - N/A   Mostly Cloudy
11:55 AM 39.2 °F 34.2 °F 24.8 °F 56% 29.84 in 10.0 mi NE 6.9 mph - N/A   Mostly Cloudy
12:15 PM 39.2 °F 34.2 °F 24.8 °F 56% 29.83 in 10.0 mi NNE 6.9 mph - N/A   Overcast
12:35 PM 39.2 °F 34.2 °F 24.8 °F 56% 29.82 in 10.0 mi NE 6.9 mph - N/A   Overcast
12:55 PM 42.8 °F 38.6 °F 24.8 °F 49% 29.81 in 10.0 mi NNE 6.9 mph - N/A   Overcast
1:15 PM 42.8 °F 39.3 °F 26.6 °F 53% 29.80 in 10.0 mi NNE 5.8 mph - N/A   Scattered Clouds
1:35 PM 44.6 °F 40.2 °F 26.6 °F 49% 29.78 in 10.0 mi NNE 8.1 mph - N/A   Scattered Clouds
1:55 PM 42.8 °F 37.0 °F 24.8 °F 49% 29.77 in 10.0 mi NE 10.4 mph - N/A   Partly Cloudy
2:15 PM 42.8 °F 37.5 °F 26.6 °F 53% 29.76 in 10.0 mi NNE 9.2 mph - N/A   Clear
2:35 PM 42.8 °F 38.0 °F 26.6 °F 53% 29.76 in 10.0 mi NE 8.1 mph - N/A   Clear
2:55 PM 44.6 °F 40.7 °F 26.6 °F 49% 29.76 in 10.0 mi NE 6.9 mph - N/A   Partly Cloudy
3:15 PM 44.6 °F 40.7 °F 26.6 °F 49% 29.75 in 10.0 mi NNE 6.9 mph - N/A   Mostly Cloudy
3:35 PM 42.8 °F 39.3 °F 26.6 °F 53% 29.75 in 10.0 mi NNE 5.8 mph - N/A   Mostly Cloudy
3:55 PM 41.0 °F 37.1 °F 26.6 °F 57% 29.75 in 10.0 mi North 5.8 mph - N/A   Scattered Clouds
4:15 PM 41.0 °F 38.0 °F 26.6 °F 57% 29.74 in 10.0 mi NE 4.6 mph - N/A   Clear
4:35 PM 39.2 °F - 26.6 °F 61% 29.74 in 10.0 mi Calm Calm - N/A   Clear
4:55 PM 39.2 °F - 26.6 °F 61% 29.74 in 10.0 mi Calm Calm - N/A   Mostly Cloudy
5:35 PM 35.6 °F - 24.8 °F 65% 29.72 in 10.0 mi Calm Calm - N/A   Partly Cloudy
5:55 PM 37.4 °F - 26.6 °F 65% 29.73 in 10.0 mi Calm Calm - N/A   Clear
6:35 PM 33.8 °F 30.8 °F 26.6 °F 75% 29.73 in 10.0 mi East 3.5 mph - N/A   Clear
6:55 PM 35.6 °F - 24.8 °F 65% 29.73 in 10.0 mi Calm Calm - N/A   Clear
7:16 PM 30.2 °F - 23.0 °F 75% 29.72 in 10.0 mi Calm Calm - N/A   Clear
7:35 PM 33.8 °F - 24.8 °F 70% 29.72 in 9.0 mi Calm Calm - N/A   Clear
8:15 PM 28.4 °F - 21.2 °F 74% 29.71 in 10.0 mi Calm Calm - N/A   Clear
8:35 PM 28.4 °F 23.3 °F 21.2 °F 74% 29.71 in 10.0 mi SSW 4.6 mph - N/A   Clear
8:55 PM 28.4 °F - 23.0 °F 80% 29.70 in 7.0 mi Calm Calm - N/A   Clear
9:15 PM 32.0 °F - 24.8 °F 75% 29.70 in 10.0 mi Calm Calm - N/A   Clear
9:35 PM 30.2 °F - 24.8 °F 80% 29.70 in 10.0 mi Calm Calm - N/A   Clear
9:55 PM 30.2 °F 26.7 °F 23.0 °F 75% 29.69 in 10.0 mi SSE 3.5 mph - N/A   Partly Cloudy
10:15 PM 30.2 °F 25.4 °F 21.2 °F 69% 29.69 in 10.0 mi South 4.6 mph - N/A   Clear
10:55 PM 33.8 °F 29.6 °F 24.8 °F 70% 29.69 in 10.0 mi SSE 4.6 mph - N/A   Clear
11:15 PM 30.2 °F - 23.0 °F 75% 29.68 in 10.0 mi Calm Calm - N/A   Clear
11:35 PM 30.2 °F - 24.8 °F 80% 29.69 in 10.0 mi Calm Calm - N/A   Clear